• In Hungary
  • List of Countries
  • For 7 days
  • Water Temperature
  • Satellite Maps
  • Weather Map
  • News
  • Weather Widgets
  • user-avatar
    Login

    Hourly Weather Horodnytsya

    Today, 19 October, Thursday

    Time Temperature Precipitation Wind Pressure Humidity
    00:00 +15°C° 0 mm 1 mps 738 mmHg 65%
    01:00 +15°C° 0 mm 1 mps 738 mmHg 66%
    02:00 +15°C° 0 mm 1 mps 738 mmHg 65%
    03:00 +14°C° 0 mm 1 mps 737 mmHg 66%
    04:00 +14°C° 0 mm 1 mps 737 mmHg 67%
    05:00 +14°C° 0 mm 1 mps 737 mmHg 67%
    06:00 +14°C° 0 mm 1 mps 737 mmHg 67%
    07:00 +14°C° 0 mm 1 mps 737 mmHg 66%
    08:00 +15°C° 0 mm 1 mps 737 mmHg 64%
    09:00 +18°C° 0 mm 1 mps 737 mmHg 59%
    10:00 +19°C° 0 mm 1 mps 737 mmHg 55%
    11:00 +20°C° 0 mm 1 mps 737 mmHg 50%
    12:00 +21°C° 0 mm 1 mps 737 mmHg 48%
    13:00 +22°C° 0 mm 1 mps 737 mmHg 45%
    14:00 +23°C° 0 mm 1 mps 737 mmHg 43%
    15:00 +22°C° 0 mm 1 mps 737 mmHg 47%
    16:00 +21°C° 0 mm 1 mps 737 mmHg 51%
    17:00 +19°C° 0 mm 1 mps 736 mmHg 56%
    18:00 +18°C° 0 mm 1 mps 737 mmHg 58%
    19:00 +18°C° 0 mm 1 mps 737 mmHg 61%
    20:00 +16°C° 0 mm 1 mps 737 mmHg 63%
    21:00 +15°C° 0 mm 1 mps 737 mmHg 65%
    22:00 +15°C° 0 mm 1 mps 737 mmHg 67%
    23:00 +14°C° 0 mm 1 mps 738 mmHg 69%

    Tomorrow, 20 October, Friday

    Time Temperature Precipitation Wind Pressure Humidity
    00:00 +14°C° 0 mm 1 mps 738 mmHg 71%
    01:00 +13°C° 0 mm 1 mps 738 mmHg 74%
    02:00 +13°C° 0 mm 1 mps 738 mmHg 76%
    03:00 +13°C° 0 mm 1 mps 738 mmHg 78%
    04:00 +12°C° 0 mm 1 mps 738 mmHg 81%
    05:00 +12°C° 0 mm 1 mps 738 mmHg 84%
    06:00 +12°C° 0 mm 1 mps 738 mmHg 83%
    07:00 +12°C° 0 mm 1 mps 738 mmHg 83%
    08:00 +12°C° 0 mm 1 mps 739 mmHg 83%
    09:00 +14°C° 0 mm 1 mps 739 mmHg 77%
    10:00 +16°C° 0 mm 1 mps 739 mmHg 70%
    11:00 +18°C° 0 mm 1 mps 739 mmHg 63%
    12:00 +19°C° 0 mm 1 mps 739 mmHg 60%
    13:00 +20°C° 0 mm 1 mps 739 mmHg 57%
    14:00 +20°C° 0 mm 1 mps 739 mmHg 54%
    15:00 +20°C° 0 mm 1 mps 739 mmHg 58%
    16:00 +19°C° 0 mm 1 mps 739 mmHg 62%
    17:00 +18°C° 0 mm 1 mps 739 mmHg 65%
    18:00 +16°C° 0 mm 1 mps 739 mmHg 69%
    19:00 +15°C° 0 mm 1 mps 739 mmHg 73%
    20:00 +14°C° 0 mm 1 mps 740 mmHg 78%
    21:00 +13°C° 0 mm 1 mps 740 mmHg 81%
    22:00 +13°C° 0 mm 1 mps 740 mmHg 84%
    23:00 +12°C° 0 mm 1 mps 740 mmHg 87%

    Day after tomorrow, 21 October, Saturday

    Time Temperature Precipitation Wind Pressure Humidity
    00:00 +12°C° 0 mm 1 mps 740 mmHg 88%
    01:00 +12°C° 0 mm 1 mps 740 mmHg 89%
    02:00 +11°C° 0 mm 1 mps 740 mmHg 91%
    03:00 +11°C° 0 mm 1 mps 740 mmHg 91%
    04:00 +11°C° 0 mm 1 mps 739 mmHg 92%
    05:00 +11°C° 0 mm 1 mps 739 mmHg 92%
    06:00 +11°C° 0 mm 1 mps 739 mmHg 91%
    07:00 +11°C° 0 mm 1 mps 739 mmHg 90%
    08:00 +12°C° 0 mm 1 mps 740 mmHg 89%
    09:00 +13°C° 0 mm 1 mps 740 mmHg 83%
    10:00 +14°C° 0 mm 1 mps 740 mmHg 77%
    11:00 +16°C° 0 mm 1 mps 739 mmHg 70%
    12:00 +16°C° 0 mm 1 mps 739 mmHg 68%
    13:00 +18°C° 0 mm 1 mps 739 mmHg 65%
    14:00 +18°C° 0 mm 1 mps 739 mmHg 62%
    15:00 +18°C° 0.1 mm 1 mps 738 mmHg 66%
    16:00 +16°C° 0.1 mm 1 mps 738 mmHg 69%
    17:00 +15°C° 0.1 mm 1 mps 738 mmHg 72%
    18:00 +15°C° 0.1 mm 1 mps 738 mmHg 74%
    19:00 +14°C° 0.1 mm 1 mps 738 mmHg 77%
    20:00 +13°C° 0.1 mm 1 mps 738 mmHg 79%
    21:00 +13°C° 0.1 mm 1 mps 739 mmHg 81%
    22:00 +13°C° 0.1 mm 1 mps 739 mmHg 83%
    23:00 +12°C° 0.1 mm 1 mps 739 mmHg 84%

    22 October, Sunday

    Time Temperature Precipitation Wind Pressure Humidity
    00:00 +12°C° 0 mm 1 mps 739 mmHg 86%
    01:00 +12°C° 0 mm 1 mps 739 mmHg 88%
    02:00 +11°C° 0 mm 1 mps 739 mmHg 90%
    03:00 +11°C° 0 mm 1 mps 739 mmHg 91%
    04:00 +11°C° 0 mm 1 mps 739 mmHg 92%
    05:00 +10°C° 0 mm 1 mps 739 mmHg 93%
    06:00 +11°C° 0 mm 1 mps 739 mmHg 92%
    07:00 +11°C° 0 mm 1 mps 739 mmHg 91%
    08:00 +11°C° 0 mm 1 mps 739 mmHg 90%
    09:00 +12°C° 0 mm 2 mps 739 mmHg 85%
    10:00 +13°C° 0 mm 2 mps 739 mmHg 80%
    11:00 +15°C° 0 mm 2 mps 739 mmHg 75%
    12:00 +15°C° 0 mm 2 mps 739 mmHg 72%
    13:00 +16°C° 0 mm 3 mps 738 mmHg 70%
    14:00 +16°C° 0 mm 3 mps 738 mmHg 68%
    15:00 +16°C° 0 mm 3 mps 738 mmHg 70%
    16:00 +15°C° 0 mm 2 mps 737 mmHg 72%
    17:00 +15°C° 0 mm 2 mps 737 mmHg 74%
    18:00 +13°C° 0 mm 3 mps 737 mmHg 74%
    19:00 +13°C° 0 mm 3 mps 737 mmHg 75%
    20:00 +12°C° 0 mm 3 mps 737 mmHg 75%
    21:00 +12°C° 0 mm 3 mps 737 mmHg 75%
    22:00 +12°C° 0 mm 4 mps 737 mmHg 75%
    23:00 +11°C° 0 mm 4 mps 737 mmHg 76%

    23 October, Monday

    Time Temperature Precipitation Wind Pressure Humidity
    00:00 +11°C° 0.1 mm 3 mps 737 mmHg 77%
    01:00 +11°C° 0.1 mm 3 mps 736 mmHg 78%
    02:00 +11°C° 0.1 mm 3 mps 736 mmHg 79%
    03:00 +10°C° 0.1 mm 3 mps 736 mmHg 82%
    04:00 +10°C° 0.1 mm 3 mps 736 mmHg 85%
    05:00 +10°C° 0.1 mm 3 mps 736 mmHg 88%
    06:00 +10°C° 0 mm 3 mps 736 mmHg 89%
    07:00 +11°C° 0 mm 3 mps 736 mmHg 90%
    08:00 +12°C° 0 mm 2 mps 736 mmHg 91%
    09:00 +12°C° 0 mm 2 mps 736 mmHg 88%
    10:00 +13°C° 0 mm 2 mps 736 mmHg 86%
    11:00 +13°C° 0 mm 2 mps 736 mmHg 83%
    12:00 +12°C° 0 mm 3 mps 736 mmHg 83%
    13:00 +12°C° 0 mm 3 mps 736 mmHg 83%
    14:00 +12°C° 0 mm 3 mps 737 mmHg 82%
    15:00 +12°C° 0.1 mm 3 mps 737 mmHg 84%
    16:00 +11°C° 0.1 mm 3 mps 737 mmHg 85%
    17:00 +11°C° 0.1 mm 3 mps 737 mmHg 86%
    18:00 +11°C° 0 mm 3 mps 738 mmHg 88%
    19:00 +10°C° 0 mm 3 mps 738 mmHg 89%
    20:00 +10°C° 0 mm 3 mps 738 mmHg 90%
    21:00 +10°C° 0.1 mm 3 mps 739 mmHg 89%
    22:00 +10°C° 0.1 mm 3 mps 739 mmHg 88%
    23:00 +10°C° 0.1 mm 3 mps 739 mmHg 86%

    24 October, Tuesday

    Time Temperature Precipitation Wind Pressure Humidity
    00:00 +10°C° 0.1 mm 3 mps 739 mmHg 86%
    01:00 +10°C° 0.1 mm 3 mps 740 mmHg 85%
    02:00 +10°C° 0.1 mm 3 mps 740 mmHg 84%
    03:00 +9°C° 0.1 mm 3 mps 740 mmHg 85%
    04:00 +9°C° 0.1 mm 3 mps 740 mmHg 85%
    05:00 +8°C° 0.1 mm 4 mps 740 mmHg 85%
    06:00 +8°C° 0.2 mm 4 mps 741 mmHg 84%
    07:00 +7°C° 0.2 mm 4 mps 741 mmHg 84%
    08:00 +7°C° 0.2 mm 4 mps 742 mmHg 83%
    09:00 +7°C° 0.2 mm 4 mps 742 mmHg 80%
    10:00 +8°C° 0.2 mm 4 mps 743 mmHg 77%
    11:00 +8°C° 0.2 mm 4 mps 743 mmHg 75%
    12:00 +8°C° 0 mm 4 mps 743 mmHg 71%
    13:00 +8°C° 0 mm 4 mps 743 mmHg 68%
    14:00 +8°C° 0 mm 4 mps 744 mmHg 64%
    15:00 +9°C° 0 mm 3 mps 744 mmHg 63%
    16:00 +9°C° 0 mm 3 mps 744 mmHg 62%
    17:00 +9°C° 0 mm 2 mps 745 mmHg 61%
    18:00 +9°C° 0 mm 3 mps 745 mmHg 62%
    19:00 +9°C° 0 mm 3 mps 746 mmHg 63%
    20:00 +8°C° 0 mm 3 mps 746 mmHg 65%
    21:00 +8°C° 0 mm 3 mps 747 mmHg 65%
    22:00 +8°C° 0 mm 3 mps 747 mmHg 66%
    23:00 +8°C° 0 mm 3 mps 747 mmHg 67%
    Show more